Regional Weather Roundup
Issued by NWS Goodland, KS

Home | Current Version | Previous Version | Graphics & Text | Print | Product List | Glossary On
Versions: 1 2 3 4 5 6 7 8 9 10 11 12 13 14 15 16 17 18 19 20 21 22 23 24 25 26 27 28 29 30 31 32 33 34 35 36 37 38 39 40 41 42 43 44 45 46 47 48 49 50
000
ASUS43 KGLD 300908
RWRGLD

GOODLAND FORECAST AREA HOURLY WEATHER ROUNDUP
NATIONAL WEATHER SERVICE GOODLAND KS
300 AM MDT SUN AUG 30 2015

...OFFICIAL OBSERVATIONS...

CITY           SKY/WX    TMP DP  RH WIND       PRES   REMARKS
GOODLAND KS    MOCLDY    63  48  58 S12       30.10S
HILL CITY KS   CLEAR     57  55  93 SW3       30.05F
IMPERIAL NEB   CLEAR     60  47  61 SW8       30.05S
MCCOOK NEB     CLEAR     64  51  62 SW3       30.04S
AKRON CO       PTCLDY    68  44  42 S16G25    30.09F
BURLINGTON CO  CLEAR     63  45  51 S12       30.13S
LIMON CO       PTCLDY    51  43  74 SE5       30.17F
$$

...UNOFFICIAL OBSERVATIONS...

CITY           SKY/WX    TMP DP  RH WIND       PRES   REMARKS
COLBY KS       CLEAR     55  54  94 SW6       30.09S
GOVE KS          N/A     52  32  46 MISG        N/A
LENORA KS        N/A     60  32  34 MISG        N/A
NORTON KS      CLEAR     57  54  88 S6        30.04
SHARON SPRINGS   N/A     59  51  74 SW7         N/A
YUMA CO          N/A     62  47  57 S8          N/A
$$



USA.gov is the U.S. government's official web portal to all federal, state and local government web resources and services.